Погода в Динаре

Франция     48°38′02″N   2°04′03″W
В апреле 2022 года жителям России запретили посещать сайт meteo.paraplan.net по решению Генеральной прокуратуры. Аудитория сайта уменьшилась в 10 раз. Владельцы сайта не видят смысла в поддержке погодного сервера в таких условиях. Сайт будет закрыт в октябре.
темп.,
°C
ветер,
м/с
пор.,
м/с
влажн.,
%
обл.,
%
осадки,
мм/ч
давл.,
гПа
погр.,
м
30 сентября, пт
пт3023:00+15ссв56665 0.1 10101003
02:00+14ссв33630 0.1 1010729
05:00+14ююз22644 0.0 1010442
08:00+14з557922 0.1 1011524
11:00+14зюз6779100 0.1 1013500
14:00+16юз7864100 0.1 10121045
17:00+17зюз101267100 0.0 10101466
20:00+15ююз121787100 1.6 1009867
1 октября, сб
сб123:00+16юз131890100 0.4 1008944
02:00+17зюз111592100 1.9 1008897
05:00+17з101486100 1.1 10091019
08:00+17з11138513 0.7 1011999
11:00+17з11138111 0.1 1013999
14:00+17з101278100 0.3 10151003
17:00+17зюз898064 0.1 1016759
20:00+17з7980100 0.2 1018816
2 октября, вс
вс223:00+17зюз798392 0.0 1019620
02:00+16юз71290100 0.1 1020539
05:00+17зюз8128864 0.1 1020655
08:00+16юз7108997 0.2 1021376
11:00+17юз8984100 0.0 1022600
14:00+19юз697822 0.1 1022364
17:00+19зюз812775 0.6 1021292
20:00+19зюз711745 0.7 1021228
3 октября, пн
пн323:00+17юз610825 0.0 1022415
02:00+16юз698955 0.0 1021354
05:00+16юз699093 0.1 1021327
08:00+16зюз568869 0.2 1021485
11:00+17зюз4581100 0.1 1022474
14:00+17з4479100 0.3 1022453
17:00+17сз3382100 0.1 1021302
20:00+16сз238297 0.1 1021250
4 октября, вт
вт423:00+16сз2281100 0.0 1021240
02:00+15юз338412 0.0 1019251
05:00+15ююз338768 0.0 1018171
08:00+14ю5588100 0.0 1017189
11:00+16ююз56785 0.0 1017257
14:00+20юз45675 0.0 1016150
17:00+21юз6964100 0.0 1015188
20:00+19ююз61073100 0.0 1015124